Weather History for Athens, GA

Change the Weather History Date:

Wednesday, May 14, 2014

  Actual Average Record
Temperature  
Mean Temperature 75 °F 70 °F  
Max Temperature 85 °F 81 °F 94 °F (1933)
Min Temperature 64 °F 58 °F 40 °F (1917)
Cooling Degree Days 10 5  
Month to date cooling degree days 98 56  
Year to date cooling degree days 150 114  
Growing Degree Days 24 (Base 50)    
Moisture  
Dew Point 64 °F    
Average Humidity 71    
Maximum Humidity 97    
Minimum Humidity 44    
Precipitation  
Precipitation 0.80 in 0.10 in 1.68 in (1890)
Month to date precipitation 0.80 1.41  
Year to date precipitation 16.98 17.52  
Sea Level Pressure  
Sea Level Pressure 30.06 in    
Wind  
Wind Speed 5 mph (South)    
Max Wind Speed 12 mph    
Max Gust Speed 22 mph    
Visibility 7 miles    
Events Rain , Thunderstorm    
T = Trace of Precipitation, MM = Missing Value Source: NWS Daily Summary

Daily Weather History Graph

Daily Weather History Graph

Search for Another Location

Airport:

Trip Planner

Search our weather history database for the weather conditions in past years. The results will help you decide how hot, cold, wet, or windy it might be!

Date:

Astronomy

May. 14, 2014 Rise Set
Actual Time 6:32 AM EDT 8:27 PM EDT
Civil Twilight 6:05 AM EDT 8:54 PM EDT
Nautical Twilight 5:31 AM EDT 9:28 PM EDT
Astronomical Twilight 4:56 AM EDT 10:03 PM EDT
Moon 8:32 PM EDT (5/14) 6:28 AM EDT (5/14)
Length of Visible Light 14h 49m
Length of Day
13h 54m
Full, 100% of the Moon is Illuminated
May 14
Full
May 14
Full
May 21
Last Quarter
May 28
New
Jun 5
First Quarter

Hourly Weather History & Observations

Time (EDT) Temp. Heat Index Dew Point Humidity Pressure Visibility Wind Dir Wind Speed Gust Speed Precip Events Conditions
12:51 AM 66.0 °F - 61.0 °F 84% 30.12 in 10.0 mi Calm Calm - N/A   Clear
1:51 AM 69.8 °F - 62.6 °F 78% 30.14 in 10.0 mi South 4.6 mph - N/A   Clear
2:51 AM 68.0 °F - 62.1 °F 81% 30.11 in 10.0 mi Calm Calm - N/A   Clear
3:51 AM 66.9 °F - 63.0 °F 87% 30.10 in 10.0 mi Calm Calm - N/A   Scattered Clouds
4:51 AM 66.0 °F - 63.0 °F 90% 30.11 in 9.0 mi Calm Calm - N/A   Clear
5:51 AM 64.9 °F - 63.0 °F 93% 30.11 in 8.0 mi South 3.5 mph - N/A   Clear
6:51 AM 64.9 °F - 63.0 °F 93% 30.11 in 4.0 mi Calm Calm - N/A   Clear
7:31 AM 64.4 °F - 62.6 °F 94% 30.13 in 3.0 mi Calm Calm - N/A   Scattered Clouds
7:40 AM 64.4 °F - 64.4 °F 100% 30.14 in 3.0 mi Calm Calm - N/A   Mostly Cloudy
7:51 AM 66.9 °F - 64.9 °F 93% 30.12 in 5.0 mi Variable 3.5 mph - N/A   Overcast
8:51 AM 69.1 °F - 66.0 °F 90% 30.14 in 6.0 mi Variable 5.8 mph - N/A   Overcast
9:48 AM 69.8 °F - 64.4 °F 83% 30.15 in 8.0 mi South 5.8 mph - N/A   Overcast
9:51 AM 71.1 °F - 64.9 °F 81% 30.14 in 8.0 mi South 4.6 mph - N/A   Overcast
9:59 AM 71.6 °F - 64.4 °F 78% 30.15 in 9.0 mi South 4.6 mph - N/A   Overcast
10:51 AM 75.2 °F - 64.4 °F 69% 30.14 in 10.0 mi Variable 4.6 mph - N/A   Mostly Cloudy
11:38 AM 77.0 °F - 64.4 °F 65% 30.14 in 10.0 mi Variable 3.5 mph - N/A   Mostly Cloudy
11:51 AM 80.1 °F 81.7 °F 64.0 °F 58% 30.13 in 10.0 mi Variable 6.9 mph - N/A   Mostly Cloudy
12:51 PM 80.6 °F 81.8 °F 62.6 °F 54% 30.11 in 10.0 mi Variable 3.5 mph - N/A   Mostly Cloudy
1:51 PM 82.0 °F 83.0 °F 62.1 °F 51% 30.07 in 10.0 mi Variable 5.8 mph - N/A   Mostly Cloudy
2:51 PM 84.9 °F 85.0 °F 61.0 °F 44% 30.04 in 10.0 mi South 8.1 mph - N/A   Mostly Cloudy
3:51 PM 82.9 °F 83.2 °F 60.1 °F 46% 30.01 in 6.0 mi South 8.1 mph - N/A   Haze
4:51 PM 82.4 °F 82.9 °F 60.8 °F 48% 29.99 in 10.0 mi South 6.9 mph - N/A   Partly Cloudy
5:51 PM 82.0 °F 82.7 °F 61.0 °F 49% 29.96 in 10.0 mi Variable 5.8 mph - N/A   Clear
6:51 PM 80.1 °F 81.2 °F 62.1 °F 54% 29.95 in 10.0 mi ESE 4.6 mph - N/A   Clear
7:51 PM 73.9 °F - 66.0 °F 76% 29.99 in 4.0 mi SSW 6.9 mph - 0.03 in Rain Light Rain
8:03 PM 69.8 °F - 66.2 °F 88% 30.03 in 2.5 mi SSW 9.2 mph 20.7 mph 0.04 in Rain , Thunderstorm Heavy Thunderstorms and Rain
8:05 PM 68.0 °F - 66.2 °F 94% 30.03 in 1.2 mi SSW 9.2 mph 18.4 mph 0.07 in Rain , Thunderstorm Heavy Thunderstorms and Rain
8:15 PM 69.8 °F - 66.2 °F 88% 30.04 in 2.0 mi South 6.9 mph 19.6 mph 0.25 in Rain , Thunderstorm Thunderstorms and Rain
8:18 PM 69.8 °F - 66.2 °F 88% 30.04 in 4.0 mi South 6.9 mph 17.3 mph 0.25 in Rain Rain
8:31 PM 69.8 °F - 66.2 °F 88% 30.03 in 2.5 mi Calm Calm - 0.28 in Rain Heavy Rain
8:34 PM 69.8 °F - 66.2 °F 88% 30.04 in 1.8 mi WSW 5.8 mph - 0.32 in Rain Heavy Rain
8:46 PM 68.0 °F - 66.2 °F 94% 30.04 in 2.0 mi Variable 6.9 mph - 0.46 in Rain Rain
8:51 PM 68.0 °F - 66.0 °F 93% 30.02 in 3.0 mi Variable 3.5 mph - 0.48 in Rain Rain
8:59 PM 68.0 °F - 66.2 °F 94% 30.02 in 3.0 mi Variable 3.5 mph - 0.03 in Rain Rain
9:18 PM 69.8 °F - 66.2 °F 88% 30.01 in 8.0 mi Variable 5.8 mph - 0.06 in Rain Light Rain
9:34 PM 68.0 °F - 66.2 °F 94% 30.02 in 8.0 mi SE 3.5 mph - 0.08 in Rain Light Rain
9:51 PM 69.1 °F - 66.9 °F 93% 29.99 in 4.0 mi ESE 6.9 mph - 0.11 in Rain Rain
10:09 PM 69.8 °F - 68.0 °F 94% 30.01 in 4.0 mi Variable 4.6 mph - 0.05 in Rain Rain
10:51 PM 69.8 °F - 68.0 °F 94% 30.00 in 5.0 mi SSE 5.8 mph - N/A Rain Rain
11:11 PM 69.8 °F - 69.8 °F 100% 30.00 in 10.0 mi SE 8.1 mph - 0.01 in Rain , Thunderstorm Light Thunderstorms and Rain
11:40 PM 69.8 °F - 66.2 °F 88% 29.99 in 10.0 mi Variable 6.9 mph - 0.01 in   Overcast
11:51 PM 69.1 °F - 66.9 °F 93% 29.96 in 10.0 mi Variable 4.6 mph - 0.01 in   Overcast